Hourly Weather Rushrodo

Today, 20 April, Tuesday

Time Temperature Precipitation Wind Pressure Humidity
00:00 -1°C° 0 mm 3 mps 760 mmHg 53%
01:00 -1°C° 0 mm 3 mps 760 mmHg 53%
02:00 -2°C° 0 mm 3 mps 760 mmHg 54%
03:00 -2°C° 0 mm 3 mps 760 mmHg 54%
04:00 -1°C° 0 mm 3 mps 760 mmHg 52%
05:00 -2°C° 0 mm 4 mps 760 mmHg 51%
06:00 -2°C° 0 mm 4 mps 760 mmHg 50%
07:00 0°C° 0 mm 4 mps 760 mmHg 46%
08:00 +3°C° 0 mm 4 mps 760 mmHg 42%
09:00 +5°C° 0 mm 5 mps 760 mmHg 38%
10:00 +6°C° 0 mm 5 mps 760 mmHg 35%
11:00 +7°C° 0 mm 5 mps 760 mmHg 32%
12:00 +7°C° 0 mm 5 mps 760 mmHg 29%
13:00 +8°C° 0 mm 5 mps 759 mmHg 28%
14:00 +8°C° 0 mm 5 mps 759 mmHg 28%
15:00 +8°C° 0 mm 5 mps 759 mmHg 28%
16:00 +7°C° 0 mm 5 mps 758 mmHg 31%
17:00 +6°C° 0 mm 5 mps 758 mmHg 34%
18:00 +6°C° 0 mm 4 mps 758 mmHg 38%
19:00 +5°C° 0 mm 4 mps 757 mmHg 41%
20:00 +3°C° 0 mm 5 mps 757 mmHg 45%
21:00 +1°C° 0 mm 5 mps 757 mmHg 48%
22:00 +1°C° 0 mm 5 mps 757 mmHg 50%
23:00 +1°C° 0 mm 4 mps 757 mmHg 51%

Tomorrow, 21 April, Wednesday

Time Temperature Precipitation Wind Pressure Humidity
00:00 0°C° 0 mm 4 mps 757 mmHg 53%
01:00 0°C° 0 mm 5 mps 756 mmHg 53%
02:00 0°C° 0 mm 5 mps 756 mmHg 52%
03:00 0°C° 0 mm 5 mps 756 mmHg 52%
04:00 -1°C° 0 mm 6 mps 755 mmHg 51%
05:00 0°C° 0 mm 7 mps 755 mmHg 50%
06:00 0°C° 0 mm 7 mps 754 mmHg 50%
07:00 0°C° 0 mm 7 mps 754 mmHg 48%
08:00 +1°C° 0 mm 8 mps 754 mmHg 47%
09:00 +2°C° 0 mm 8 mps 754 mmHg 45%
10:00 +2°C° 0.1 mm 8 mps 754 mmHg 50%
11:00 +1°C° 0.1 mm 8 mps 753 mmHg 55%
12:00 +1°C° 0.1 mm 8 mps 753 mmHg 59%
13:00 +1°C° 0.5 mm 8 mps 753 mmHg 67%
14:00 0°C° 0.5 mm 8 mps 753 mmHg 74%
15:00 -1°C° 0.5 mm 8 mps 753 mmHg 82%
16:00 -1°C° 0.4 mm 8 mps 752 mmHg 86%
17:00 -1°C° 0.4 mm 8 mps 752 mmHg 90%
18:00 -2°C° 0.4 mm 7 mps 752 mmHg 94%
19:00 -1°C° 0.1 mm 7 mps 752 mmHg 94%
20:00 -1°C° 0.1 mm 7 mps 752 mmHg 93%
21:00 -1°C° 0.1 mm 7 mps 752 mmHg 93%
22:00 -1°C° 0 mm 6 mps 752 mmHg 94%
23:00 -1°C° 0 mm 6 mps 752 mmHg 94%

Day after tomorrow, 22 April, Thursday

Time Temperature Precipitation Wind Pressure Humidity
00:00 0°C° 0 mm 5 mps 752 mmHg 95%
01:00 0°C° 0 mm 5 mps 752 mmHg 95%
02:00 0°C° 0 mm 5 mps 752 mmHg 95%
03:00 0°C° 0 mm 5 mps 752 mmHg 95%
04:00 0°C° 0 mm 5 mps 752 mmHg 96%
05:00 +1°C° 0 mm 5 mps 752 mmHg 96%
06:00 +1°C° 0 mm 4 mps 752 mmHg 96%
07:00 +1°C° 0.2 mm 4 mps 752 mmHg 96%
08:00 +1°C° 0.2 mm 4 mps 752 mmHg 96%
09:00 +3°C° 0.2 mm 4 mps 753 mmHg 95%
10:00 +3°C° 0 mm 4 mps 753 mmHg 95%
11:00 +4°C° 0 mm 4 mps 753 mmHg 94%
12:00 +4°C° 0 mm 4 mps 753 mmHg 93%
13:00 +5°C° 0 mm 4 mps 753 mmHg 91%
14:00 +6°C° 0 mm 4 mps 753 mmHg 88%
15:00 +7°C° 0 mm 4 mps 753 mmHg 86%
16:00 +7°C° 0.1 mm 4 mps 753 mmHg 86%
17:00 +7°C° 0.1 mm 4 mps 753 mmHg 86%
18:00 +7°C° 0.1 mm 5 mps 753 mmHg 86%
19:00 +6°C° 1.1 mm 5 mps 753 mmHg 89%
20:00 +6°C° 1.1 mm 4 mps 753 mmHg 91%
21:00 +5°C° 1.1 mm 4 mps 754 mmHg 94%
22:00 +5°C° 0.1 mm 4 mps 753 mmHg 94%
23:00 +3°C° 0.1 mm 5 mps 753 mmHg 95%

23 April, Friday

Time Temperature Precipitation Wind Pressure Humidity
00:00 +3°C° 0.1 mm 5 mps 753 mmHg 95%
01:00 +4°C° 0 mm 4 mps 753 mmHg 95%
02:00 +3°C° 0 mm 4 mps 754 mmHg 96%
03:00 +3°C° 0 mm 4 mps 754 mmHg 96%
04:00 +3°C° 0 mm 4 mps 754 mmHg 96%
05:00 +3°C° 0 mm 3 mps 754 mmHg 95%
06:00 +3°C° 0 mm 3 mps 754 mmHg 94%
07:00 +4°C° 0 mm 3 mps 754 mmHg 89%
08:00 +7°C° 0 mm 3 mps 754 mmHg 84%
09:00 +8°C° 0 mm 3 mps 755 mmHg 79%
10:00 +9°C° 0 mm 3 mps 754 mmHg 75%
11:00 +10°C° 0 mm 3 mps 754 mmHg 71%
12:00 +11°C° 0 mm 3 mps 754 mmHg 67%
13:00 +12°C° 0.2 mm 3 mps 754 mmHg 67%
14:00 +12°C° 0.2 mm 3 mps 754 mmHg 66%
15:00 +12°C° 0.2 mm 3 mps 754 mmHg 66%
16:00 +12°C° 0.2 mm 3 mps 754 mmHg 70%
17:00 +11°C° 0.2 mm 3 mps 753 mmHg 73%
18:00 +10°C° 0.2 mm 3 mps 753 mmHg 77%
19:00 +10°C° 0 mm 3 mps 753 mmHg 79%
20:00 +9°C° 0 mm 3 mps 753 mmHg 80%
21:00 +8°C° 0 mm 4 mps 753 mmHg 82%
22:00 +8°C° 0 mm 3 mps 753 mmHg 83%
23:00 +8°C° 0 mm 3 mps 753 mmHg 85%

24 April, Saturday

Time Temperature Precipitation Wind Pressure Humidity
00:00 +7°C° 0 mm 3 mps 753 mmHg 86%
01:00 +7°C° 0 mm 3 mps 752 mmHg 87%
02:00 +7°C° 0 mm 3 mps 752 mmHg 87%
03:00 +5°C° 0 mm 3 mps 752 mmHg 88%
04:00 +5°C° 0 mm 3 mps 752 mmHg 88%
05:00 +5°C° 0 mm 3 mps 751 mmHg 88%
06:00 +5°C° 0 mm 3 mps 751 mmHg 88%
07:00 +7°C° 0 mm 3 mps 751 mmHg 82%
08:00 +8°C° 0 mm 3 mps 750 mmHg 77%
09:00 +10°C° 0 mm 4 mps 750 mmHg 71%
10:00 +11°C° 0 mm 3 mps 750 mmHg 66%
11:00 +12°C° 0 mm 3 mps 749 mmHg 62%
12:00 +13°C° 0 mm 3 mps 749 mmHg 57%
13:00 +12°C° 0 mm 3 mps 748 mmHg 59%
14:00 +12°C° 0 mm 3 mps 748 mmHg 61%
15:00 +11°C° 0 mm 3 mps 748 mmHg 63%
16:00 +11°C° 0 mm 3 mps 747 mmHg 66%
17:00 +10°C° 0 mm 3 mps 747 mmHg 69%
18:00 +10°C° 0 mm 3 mps 747 mmHg 72%
19:00 +9°C° 0 mm 3 mps 747 mmHg 74%
20:00 +9°C° 0 mm 3 mps 746 mmHg 76%
21:00 +8°C° 0 mm 2 mps 746 mmHg 78%
22:00 +8°C° 0 mm 2 mps 745 mmHg 80%
23:00 +7°C° 0 mm 2 mps 745 mmHg 82%

25 April, Sunday

Time Temperature Precipitation Wind Pressure Humidity
00:00 +7°C° 0 mm 2 mps 744 mmHg 84%
01:00 +5°C° 0 mm 3 mps 744 mmHg 86%
02:00 +5°C° 0 mm 3 mps 743 mmHg 87%
03:00 +5°C° 0 mm 4 mps 743 mmHg 89%
04:00 +5°C° 0.3 mm 4 mps 742 mmHg 88%
05:00 +5°C° 0.3 mm 5 mps 742 mmHg 87%
06:00 +5°C° 0.3 mm 5 mps 741 mmHg 86%
07:00 +5°C° 1.1 mm 5 mps 741 mmHg 88%
08:00 +5°C° 1.1 mm 5 mps 740 mmHg 91%
09:00 +5°C° 1.1 mm 4 mps 740 mmHg 93%
10:00 +5°C° 0.3 mm 4 mps 740 mmHg 88%
11:00 +6°C° 0.3 mm 4 mps 740 mmHg 83%
12:00 +7°C° 0.3 mm 3 mps 740 mmHg 78%
13:00 +6°C° 0.2 mm 4 mps 740 mmHg 75%
14:00 +6°C° 0.2 mm 4 mps 740 mmHg 72%
15:00 +6°C° 0.2 mm 5 mps 740 mmHg 69%
16:00 +5°C° 0.3 mm 5 mps 741 mmHg 75%
17:00 +5°C° 0.3 mm 5 mps 741 mmHg 81%
18:00 +3°C° 0.3 mm 5 mps 741 mmHg 88%
19:00 +3°C° 0.1 mm 5 mps 742 mmHg 88%
20:00 +3°C° 0.1 mm 4 mps 742 mmHg 89%
21:00 +3°C° 0.1 mm 4 mps 743 mmHg 90%
22:00 +3°C° 0 mm 4 mps 743 mmHg 88%
23:00 +1°C° 0 mm 4 mps 743 mmHg 86%
Show more